Regional Weather Roundup
Issued by NWS

Home | Current Version | Previous Version | Graphics & Text | Print | Product List | Glossary On
Versions: 1 2 3 4 5 6 7 8 9 10 11 12 13 14 15 16 17 18 19 20 21 22 23 24 25 26 27 28 29 30 31 32 33 34 35 36 37 38 39 40 41 42 43 44 45 46 47 48 49
000
ASUS45 KBOU 241807
RWRCO

WEATHER ROUNDUP FOR COLORADO
NATIONAL WEATHER SERVICE DENVER/BOULDER CO
1200 PM MDT THU JUL 24 2014

NOTE: "FAIR" INDICATES FEW OR NO CLOUDS BELOW 12000 FEET WITH NO
SIGNIFICANT WEATHER AND/OR OBSTRUCTIONS TO VISIBILITY.

COZ001>005-013-030-031-241900-
...NORTHWEST COLORADO...

CITY           SKY/WX    TMP DP  RH WIND       PRES   REMARKS
CRAIG          CLOUDY    71  49  45 SW16      30.28S
HAYDEN         CLOUDY    77  46  33 W13G21    30.32R
MEEKER         CLOUDY    79  50  36 S13       30.30F
MOUNT WERNER   NOT AVBL
STEAMBOAT SPGS CLOUDY    80  46  30 W13G22    30.33R
WALDEN         MOSUNNY   77  41  27 SW15G23   30.39F
$$

COZ006>008-011-241900-
...WEST CENTRAL VALLEYS...

CITY           SKY/WX    TMP DP  RH WIND       PRES   REMARKS
GRAND JUNCTION PTSUNNY   86  49  27 SE10      30.17F
MONTROSE       MOSUNNY   85  52  32 N12       30.27F
EAGLE          PTSUNNY   75  48  38 W8        30.34F
RIFLE          CLOUDY    84  50  30 N5        30.24F
DELTA          MOSUNNY   89  47  23 SE7       30.22F
NUCLA          MOSUNNY   86  46  25 SW14G23   30.31S
$$

COZ017>023-064>068-241900-
...SOUTHWEST COLORADO...

CITY           SKY/WX    TMP DP  RH WIND       PRES   REMARKS
DURANGO        PTSUNNY   78  50  37 N6        30.36F
CORTEZ         PTSUNNY   84  50  30 W5        30.29F
PAGOSA SPRINGS MOSUNNY   76  46  34 W8        30.45F
TELLURIDE      PTSUNNY   72  45  37 S6        30.52F
WOLF CREEK PAS NOT AVBL
$$

COZ009-010-012-014-032>034-037-058>063-241900-
...CENTRAL COLORADO...

CITY           SKY/WX    TMP DP  RH WIND       PRES   REMARKS
ASPEN          CLOUDY    75  44  33 N6        30.42F
BUENA VISTA    PTSUNNY   79  39  24 W8        30.39F
COPPER MTN     CLOUDY    59  39  47 W18G26    30.76S
BERTHOUD PASS  FAIR      54  39  58 NW21G29   30.79R
COTTONWOOD PAS PTSUNNY   77  37  24 N6        30.56F
GUNNISON       SUNNY     75  43  31 NE6       30.43F
KREMMLING      PTSUNNY   82  37  20 W12G18    30.38S
LEADVILLE      CLOUDY    65  41  41 NW13G20   30.58S
MONARCH PASS   SUNNY     61  41  48 SW22G29   30.84F
SALIDA         PTSUNNY  N/A N/A N/A SW17G24   30.42F
SUNLIGHT       CLOUDY    66  50  55 CALM      30.68S
WILKERSON PASS PTSUNNY   66  39  37 SW8       30.70S
$$

COZ069>075-241900-
...SAN LUIS VALLEY/SANGRE DE CRISTO MOUNTAINS...

CITY           SKY/WX    TMP DP  RH WIND       PRES   REMARKS
ALAMOSA        SUNNY     78  47  33 S6        30.39F
LA VETA PASS   SUNNY     68  43  40 SW12G23   30.59F
SAGUACHE       SUNNY     75  46  35 S3        30.43F
$$

COZ035-036-038>040-241900-
...NORTHERN COLORADO FRONT RANGE...

CITY           SKY/WX    TMP DP  RH WIND       PRES   REMARKS
DENVER INTL AP MOSUNNY   95  43  16 W3        30.11F
DMNS CITY PARK   N/A     93  44  18 SE3       30.08F
AURORA         MOSUNNY   91  47  21 W2        30.14F
FRONT RANGE AP MOSUNNY   93  43  17 CALM      30.13F
ERIE MUNI ARPT SUNNY     94  40  15 CALM      30.08S
BOULDER MUN AP SUNNY     95  43  16 NE3       30.08F
CENTENNIAL     MOSUNNY   91  41  17 CALM      30.15F
BROOMFIELD     PTSUNNY   95  41  15 W17G23    30.13S
FORT COLLINS   SUNNY     93  52  24 W5        30.04F
LONGMONT       SUNNY     97  45  16 CALM      30.08F
$$

COZ041-046-047-076>085-087-088-241900-
...PIKES PEAK/PALMER DIVIDE AND SOUTHERN FOOTHILLS...

CITY           SKY/WX    TMP DP  RH WIND       PRES   REMARKS
COLO. SPRINGS  PTSUNNY   89  46  22 E7        30.21F
A. F. ACADEMY  PTSUNNY   87  49  26 S5        30.22F
ELLICOTT       MOSUNNY   87  48  25 W7        30.19F
FALCON         MOSUNNY   88  47  24 S3        30.27F
FORT CARSON    MOSUNNY   89  52  28 NE8       30.17F
LIMON          SUNNY     93  45  19 S17G29    30.12F
MONUMENT HILL  SUNNY     86  39  19 CALM      30.26F
TRINIDAD       SUNNY     91  43  18 VRB6      30.20F
$$

COZ042>045-048>051-090-091-241900-
...NORTHEAST COLORADO...

CITY           SKY/WX    TMP DP  RH WIND       PRES   REMARKS
GREELEY ARPT   SUNNY     90  61  37 N3        30.06S
AKRON          SUNNY     96  48  19 W8G21     30.04F
BURLINGTON     SUNNY     96  44  16 S24G33    30.06F
WRAY             N/A    103  43  13 S17G30    29.98S
STERLING       SUNNY     95  70  43 S7        29.98F
HOLYOKE        SUNNY     97  57  26 SW10G20   29.97F
FORT MORGAN    SUNNY     97  41  14 W6        30.04F
$$

COZ086-089-092>099-241900-
...SOUTHEAST COLORADO...

CITY           SKY/WX    TMP DP  RH WIND       PRES   REMARKS
PUEBLO         SUNNY     94  47  20 SW9       30.09F
LA JUNTA       SUNNY     95  51  22 S12G21    30.08F
LAMAR          SUNNY     98  45  16 S10       30.03F
SPRINGFIELD      N/A     93  46  19 SW16G29   30.12F
$$



USA.gov is the U.S. government's official web portal to all federal, state and local government web resources and services.